,,PA_Meas_PMT16A,,PR_Meas_QMR101_102,,RH_Meas_QMH101,,SR_Meas_QMS101,,TA_Meas_QMH101,,GenWind,,GenWind,
time,status,PA,status,PR,status,RH,status,SR,status,TA,status,DirAvg,status,SpdAvg,
2012-07-01, 00:00:04,VALID,916.552,VALID,0,VALID,95.6815,VALID,0.107441,VALID,20.2863,VALID,42,VALID,0,
2012-07-01, 00:01:04,VALID,916.521,VALID,0,VALID,95.6053,VALID,0.107441,VALID,20.3479,VALID,42,VALID,0,
2012-07-01, 00:02:04,VALID,916.536,VALID,0,VALID,95.5214,VALID,0,VALID,20.3916,VALID,42,VALID,0,
2012-07-01, 00:03:04,VALID,916.543,VALID,0,VALID,95.4757,VALID,0.107441,VALID,20.2879,VALID,1,VALID,0,
2012-07-01, 00:04:04,VALID,916.569,VALID,0,VALID,95.4833,VALID,0.107441,VALID,20.2278,VALID,1,VALID,0,
2012-07-01, 00:05:04,VALID,916.531,VALID,0,VALID,95.5214,VALID,0.107441,VALID,20.2714,VALID,1,VALID,0,
2012-07-01, 00:06:04,VALID,916.492,VALID,0,VALID,95.5519,VALID,0.107441,VALID,20.273,VALID,1,VALID,0,
2012-07-01, 00:07:04,VALID,916.461,VALID,0,VALID,95.6281,VALID,0.107441,VALID,20.1693,VALID,353,VALID,0,
2012-07-01, 00:08:04,VALID,916.399,VALID,0,VALID,95.712,VALID,0.107441,VALID,20.1318,VALID,360,VALID,0,
2012-07-01, 00:09:04,VALID,916.363,VALID,0,VALID,95.8263,VALID,0.107441,VALID,20.2175,VALID,360,VALID,0,
2012-07-01, 00:10:04,VALID,916.316,VALID,0,VALID,95.8797,VALID,0,VALID,20.198,VALID,360,VALID,0,
2012-07-01, 00:11:04,VALID,916.296,VALID,0,VALID,95.9483,VALID,0,VALID,20.0538,VALID,349,VALID,0,
2012-07-01, 00:12:04,VALID,916.309,VALID,0,VALID,96.0093,VALID,0,VALID,20.0343,VALID,349,VALID,0,
2012-07-01, 00:13:04,VALID,916.289,VALID,0,VALID,96.0855,VALID,0,VALID,20.0148,VALID,350,VALID,0,
2012-07-01, 00:14:04,VALID,916.273,VALID,0,VALID,96.1389,VALID,0,VALID,20.0764,VALID,20,VALID,0,
2012-07-01, 00:15:04,VALID,916.248,VALID,0,VALID,96.2151,VALID,0,VALID,20.0989,VALID,20,VALID,0,
2012-07-01, 00:16:04,VALID,916.252,VALID,0,VALID,96.2761,VALID,0,VALID,20.0959,VALID,20,VALID,0,
2012-07-01, 00:17:04,VALID,916.239,VALID,0,VALID,96.2304,VALID,0,VALID,20.0343,VALID,1,VALID,0,
2012-07-01, 00:18:04,VALID,916.2,VALID,0,VALID,96.2837,VALID,0,VALID,20.1785,VALID,6,VALID,0,
2012-07-01, 00:19:04,VALID,916.218,VALID,0,VALID,96.2609,VALID,0,VALID,20.0959,VALID,6,VALID,0,
2012-07-01, 00:20:04,VALID,916.171,VALID,0,VALID,96.2914,VALID,0,VALID,20.0749,VALID,6,VALID,0,
2012-07-01, 00:21:04,VALID,916.163,VALID,0,VALID,96.2837,VALID,0,VALID,20.0328,VALID,6,VALID,0,
2012-07-01, 00:22:04,VALID,916.157,VALID,0,VALID,96.3524,VALID,0,VALID,20.2191,VALID,6,VALID,0,
2012-07-01, 00:23:04,VALID,916.176,VALID,0,VALID,96.3524,VALID,0,VALID,20.1349,VALID,6,VALID,0,
2012-07-01, 00:24:04,VALID,916.188,VALID,0,VALID,96.3295,VALID,0,VALID,20.1364,VALID,6,VALID,0,
2012-07-01, 00:25:04,VALID,916.256,VALID,0,VALID,96.3219,VALID,0,VALID,20.0928,VALID,6,VALID,0,
2012-07-01, 00:26:04,VALID,916.255,VALID,0,VALID,96.3676,VALID,0,VALID,20.0718,VALID,6,VALID,0,
2012-07-01, 00:27:04,VALID,916.298,VALID,0,VALID,96.3371,VALID,0,VALID,20.0733,VALID,6,VALID,0,
2012-07-01, 00:28:04,VALID,916.363,VALID,0,VALID,96.3219,VALID,0,VALID,20.1139,VALID,7,VALID,0,
2012-07-01, 00:29:04,VALID,916.377,VALID,0,VALID,96.3676,VALID,0,VALID,20.0718,VALID,7,VALID,0,
2012-07-01, 00:30:04,VALID,916.397,VALID,0,VALID,96.3981,VALID,0,VALID,20.0944,VALID,7,VALID,0,
2012-07-01, 00:31:04,VALID,916.414,VALID,0,VALID,96.3752,VALID,0,VALID,20.0749,VALID,155,VALID,0,
2012-07-01, 00:32:04,VALID,916.415,VALID,0,VALID,96.3829,VALID,0,VALID,20.0764,VALID,155,VALID,0,
2012-07-01, 00:33:04,VALID,916.389,VALID,0,VALID,96.3981,VALID,0,VALID,20.0749,VALID,155,VALID,0,
2012-07-01, 00:34:04,VALID,916.319,VALID,0,VALID,96.421,VALID,0,VALID,19.9938,VALID,155,VALID,0,
2012-07-01, 00:35:04,VALID,916.302,VALID,0,VALID,96.4591,VALID,0,VALID,20.1364,VALID,155,VALID,0,
2012-07-01, 00:36:04,VALID,916.239,VALID,0,VALID,96.4819,VALID,0,VALID,20.1154,VALID,155,VALID,0,
2012-07-01, 00:37:04,VALID,916.226,VALID,0,VALID,96.4819,VALID,0,VALID,20.1139,VALID,155,VALID,0,
2012-07-01, 00:38:04,VALID,916.198,VALID,0,VALID,96.4896,VALID,0.107441,VALID,20.1349,VALID,155,VALID,0,
2012-07-01, 00:39:04,VALID,916.175,VALID,0,VALID,96.4819,VALID,0,VALID,20.1139,VALID,155,VALID,0,
2012-07-01, 00:40:04,VALID,916.162,VALID,0,VALID,96.4743,VALID,0,VALID,20.1529,VALID,155,VALID,0,
2012-07-01, 00:41:04,VALID,916.18,VALID,0,VALID,96.4515,VALID,0,VALID,20.1529,VALID,155,VALID,0,
2012-07-01, 00:42:04,VALID,916.201,VALID,0,VALID,96.4362,VALID,0,VALID,20.1139,VALID,155,VALID,0,
2012-07-01, 00:43:04,VALID,916.201,VALID,0,VALID,96.3981,VALID,0.107441,VALID,20.1739,VALID,155,VALID,0,
2012-07-01, 00:44:04,VALID,916.193,VALID,0,VALID,96.4057,VALID,0.107441,VALID,20.1529,VALID,155,VALID,0,
2012-07-01, 00:45:04,VALID,916.203,VALID,0,VALID,96.421,VALID,0,VALID,20.1934,VALID,155,VALID,0,
2012-07-01, 00:46:04,VALID,916.211,VALID,0,VALID,96.36,VALID,0,VALID,20.1919,VALID,155,VALID,0,
2012-07-01, 00:47:04,VALID,916.23,VALID,0,VALID,96.2761,VALID,0,VALID,20.1529,VALID,155,VALID,0,
2012-07-01, 00:48:04,VALID,916.251,VALID,0,VALID,96.3066,VALID,0,VALID,20.1739,VALID,155,VALID,0,
2012-07-01, 00:49:04,VALID,916.251,VALID,0,VALID,96.2533,VALID,0,VALID,20.1123,VALID,155,VALID,0,
2012-07-01, 00:50:04,VALID,916.259,VALID,0,VALID,96.2456,VALID,0,VALID,20.1559,VALID,155,VALID,0,
2012-07-01, 00:51:04,VALID,916.232,VALID,0,VALID,96.2533,VALID,0,VALID,20.0959,VALID,155,VALID,0,
2012-07-01, 00:52:04,VALID,916.229,VALID,0,VALID,96.2533,VALID,0.107441,VALID,20.0959,VALID,155,VALID,0,
2012-07-01, 00:53:04,VALID,916.223,VALID,0,VALID,96.2533,VALID,0,VALID,20.0749,VALID,155,VALID,0,
2012-07-01, 00:54:04,VALID,916.164,VALID,0,VALID,96.2456,VALID,0.107441,VALID,20.0538,VALID,155,VALID,0,
2012-07-01, 00:55:04,VALID,916.132,VALID,0,VALID,96.2456,VALID,0,VALID,20.0764,VALID,155,VALID,0,
2012-07-01, 00:56:04,VALID,916.088,VALID,0,VALID,96.2685,VALID,0,VALID,20.0749,VALID,155,VALID,0,
2012-07-01, 00:57:04,VALID,916.076,VALID,0,VALID,96.2914,VALID,0,VALID,20.0328,VALID,155,VALID,0,
2012-07-01, 00:58:04,VALID,916.032,VALID,0,VALID,96.2914,VALID,0,VALID,20.0553,VALID,155,VALID,0,
2012-07-01, 00:59:04,VALID,916.017,VALID,0,VALID,96.299,VALID,0,VALID,20.0553,VALID,155,VALID,0,
2012-07-01, 01:00:04,VALID,915.977,VALID,0,VALID,96.3219,VALID,0,VALID,20.0749,VALID,155,VALID,0,
2012-07-01, 01:01:04,VALID,915.972,VALID,0,VALID,96.3142,VALID,0.107441,VALID,20.0944,VALID,155,VALID,0,
2012-07-01, 01:02:04,VALID,915.948,VALID,0,VALID,96.2609,VALID,0.107441,VALID,20.0749,VALID,155,VALID,0,
2012-07-01, 01:03:04,VALID,915.911,VALID,0,VALID,96.2304,VALID,0,VALID,20.0749,VALID,155,VALID,0,
2012-07-01, 01:04:04,VALID,915.892,VALID,0,VALID,96.2228,VALID,0,VALID,20.0358,VALID,155,VALID,0,
2012-07-01, 01:05:04,VALID,915.854,VALID,0,VALID,96.2228,VALID,0.107441,VALID,20.0358,VALID,155,VALID,0,
2012-07-01, 01:06:04,VALID,915.809,VALID,0,VALID,96.238,VALID,0.107441,VALID,20.0163,VALID,155,VALID,0,
2012-07-01, 01:07:04,VALID,915.797,VALID,0,VALID,96.2685,VALID,0,VALID,20.0163,VALID,155,VALID,0,
2012-07-01, 01:08:04,VALID,915.771,VALID,0,VALID,96.2761,VALID,0,VALID,19.9953,VALID,155,VALID,0,
2012-07-01, 01:09:04,VALID,915.748,VALID,0,VALID,96.2456,VALID,0,VALID,19.9968,VALID,155,VALID,0,
2012-07-01, 01:10:04,VALID,915.752,VALID,0,VALID,96.2456,VALID,0,VALID,19.9773,VALID,155,VALID,0,
2012-07-01, 01:11:04,VALID,915.725,VALID,0,VALID,96.2761,VALID,0,VALID,19.9578,VALID,155,VALID,0,
2012-07-01, 01:12:04,VALID,915.734,VALID,0,VALID,96.2685,VALID,0,VALID,19.9383,VALID,155,VALID,0,
2012-07-01, 01:13:04,VALID,915.686,VALID,0,VALID,96.2761,VALID,0,VALID,19.9173,VALID,155,VALID,0,
2012-07-01, 01:14:04,VALID,915.709,VALID,0,VALID,96.3295,VALID,0,VALID,19.9188,VALID,155,VALID,0,
2012-07-01, 01:15:04,VALID,915.738,VALID,0,VALID,96.3981,VALID,0,VALID,19.9158,VALID,155,VALID,0,
2012-07-01, 01:16:04,VALID,915.706,VALID,0,VALID,96.3676,VALID,0,VALID,19.9188,VALID,155,VALID,0,
2012-07-01, 01:17:04,VALID,915.721,VALID,0,VALID,96.3676,VALID,0,VALID,19.9788,VALID,155,VALID,0,
2012-07-01, 01:18:04,VALID,915.698,VALID,0,VALID,96.36,VALID,0,VALID,19.9383,VALID,155,VALID,0,
2012-07-01, 01:19:04,VALID,915.733,VALID,0,VALID,96.36,VALID,0,VALID,19.9383,VALID,155,VALID,0,
2012-07-01, 01:20:04,VALID,915.755,VALID,0,VALID,96.3676,VALID,0.107441,VALID,19.9383,VALID,155,VALID,0,
2012-07-01, 01:21:04,VALID,915.764,VALID,0,VALID,96.3752,VALID,0,VALID,19.9383,VALID,155,VALID,0,
2012-07-01, 01:22:04,VALID,915.755,VALID,0,VALID,96.3142,VALID,0,VALID,19.9203,VALID,155,VALID,0,
2012-07-01, 01:23:04,VALID,915.766,VALID,0,VALID,96.2228,VALID,0,VALID,19.8603,VALID,155,VALID,0,
2012-07-01, 01:24:04,VALID,915.778,VALID,0,VALID,96.2075,VALID,0,VALID,19.8213,VALID,129,VALID,0,
2012-07-01, 01:25:04,VALID,915.773,VALID,0,VALID,96.238,VALID,0,VALID,19.8243,VALID,112,VALID,0,
2012-07-01, 01:26:04,VALID,915.792,VALID,0,VALID,96.3066,VALID,0,VALID,19.7853,VALID,112,VALID,0,
2012-07-01, 01:27:04,VALID,915.818,VALID,0,VALID,96.3371,VALID,0,VALID,19.7238,VALID,112,VALID,0,
2012-07-01, 01:28:04,VALID,915.772,VALID,0,VALID,96.3981,VALID,0,VALID,19.7238,VALID,112,VALID,0,
2012-07-01, 01:29:04,VALID,915.822,VALID,0,VALID,96.4819,VALID,0,VALID,19.7238,VALID,112,VALID,0,
2012-07-01, 01:30:04,VALID,915.801,VALID,0,VALID,96.5201,VALID,0,VALID,19.7238,VALID,132,VALID,0,
2012-07-01, 01:31:04,VALID,915.833,VALID,0,VALID,96.5887,VALID,0,VALID,19.7448,VALID,132,VALID,0,
2012-07-01, 01:32:04,VALID,915.853,VALID,0,VALID,96.6192,VALID,0,VALID,19.7643,VALID,133,VALID,0,
2012-07-01, 01:33:04,VALID,915.882,VALID,0,VALID,96.6268,VALID,0,VALID,19.7433,VALID,132,VALID,0,
2012-07-01, 01:34:04,VALID,915.861,VALID,0,VALID,96.642,VALID,0,VALID,19.7853,VALID,141,VALID,0,
2012-07-01, 01:35:04,VALID,915.886,VALID,0,VALID,96.6725,VALID,0,VALID,19.7658,VALID,125,VALID,0,
2012-07-01, 01:36:04,VALID,915.853,VALID,0,VALID,96.7183,VALID,0,VALID,19.7238,VALID,188,VALID,0,
2012-07-01, 01:37:04,VALID,915.855,VALID,0,VALID,96.7564,VALID,0,VALID,19.7838,VALID,138,VALID,0,
2012-07-01, 01:38:04,VALID,915.778,VALID,0,VALID,96.7564,VALID,0,VALID,19.7628,VALID,138,VALID,0,
2012-07-01, 01:39:04,VALID,915.75,VALID,0,VALID,96.7869,VALID,0,VALID,19.8243,VALID,138,VALID,0,
2012-07-01, 01:40:04,VALID,915.687,VALID,0,VALID,96.7869,VALID,0,VALID,19.8423,VALID,139,VALID,0,
2012-07-01, 01:41:04,VALID,915.645,VALID,0,VALID,96.8021,VALID,0,VALID,19.7793,VALID,139,VALID,0,
2012-07-01, 01:42:04,VALID,915.581,VALID,0,VALID,96.8021,VALID,0,VALID,19.8423,VALID,139,VALID,0,
2012-07-01, 01:43:04,VALID,915.57,VALID,0,VALID,96.825,VALID,0,VALID,19.8408,VALID,139,VALID,0,
2012-07-01, 01:44:04,VALID,915.544,VALID,0,VALID,96.8098,VALID,0,VALID,19.8618,VALID,139,VALID,0,
2012-07-01, 01:45:04,VALID,915.54,VALID,0,VALID,96.8326,VALID,0,VALID,19.8813,VALID,139,VALID,0,
2012-07-01, 01:46:04,VALID,915.561,VALID,0,VALID,96.8174,VALID,0.107441,VALID,19.8393,VALID,139,VALID,0,
2012-07-01, 01:47:04,VALID,915.579,VALID,0,VALID,96.8098,VALID,0,VALID,19.8588,VALID,139,VALID,0,
2012-07-01, 01:48:04,VALID,915.583,VALID,0,VALID,96.7869,VALID,0,VALID,19.8828,VALID,139,VALID,0,
2012-07-01, 01:49:04,VALID,915.62,VALID,0,VALID,96.7869,VALID,0,VALID,19.9249,VALID,139,VALID,0,
2012-07-01, 01:50:04,VALID,915.669,VALID,0,VALID,96.8098,VALID,0,VALID,19.8198,VALID,139,VALID,0,
2012-07-01, 01:51:04,VALID,915.684,VALID,0,VALID,96.8174,VALID,0,VALID,19.8198,VALID,139,VALID,0,
2012-07-01, 01:52:04,VALID,915.69,VALID,0,VALID,96.8021,VALID,0,VALID,19.8408,VALID,139,VALID,0,
2012-07-01, 01:53:04,VALID,915.723,VALID,0,VALID,96.7488,VALID,0,VALID,19.8408,VALID,139,VALID,0,
2012-07-01, 01:54:04,VALID,915.734,VALID,0,VALID,96.764,VALID,0,VALID,19.8648,VALID,139,VALID,0,
2012-07-01, 01:55:04,VALID,915.743,VALID,0,VALID,96.7564,VALID,0.107441,VALID,19.8633,VALID,139,VALID,0,
2012-07-01, 01:56:04,VALID,915.742,VALID,0,VALID,96.7259,VALID,0,VALID,19.8393,VALID,139,VALID,0,
2012-07-01, 01:57:04,VALID,915.717,VALID,0,VALID,96.7183,VALID,0,VALID,19.8408,VALID,139,VALID,0,
2012-07-01, 01:58:04,VALID,915.69,VALID,0,VALID,96.6802,VALID,0,VALID,19.8633,VALID,141,VALID,0,
2012-07-01, 01:59:04,VALID,915.679,VALID,0,VALID,96.6649,VALID,0.107441,VALID,19.8603,VALID,147,VALID,0,
2012-07-01, 02:00:04,VALID,915.655,VALID,0,VALID,96.6802,VALID,0.107441,VALID,19.8813,VALID,147,VALID,0,
2012-07-01, 02:01:04,VALID,915.649,VALID,0,VALID,96.6725,VALID,0,VALID,19.8198,VALID,147,VALID,0,
2012-07-01, 02:02:04,VALID,915.612,VALID,0,VALID,96.6115,VALID,0,VALID,19.8618,VALID,147,VALID,0,
2012-07-01, 02:03:04,VALID,915.61,VALID,0,VALID,96.5963,VALID,0,VALID,19.8438,VALID,147,VALID,0,
2012-07-01, 02:04:04,VALID,915.604,VALID,0,VALID,96.6115,VALID,0,VALID,19.7793,VALID,147,VALID,0,
2012-07-01, 02:05:04,VALID,915.54,VALID,0,VALID,96.642,VALID,0,VALID,19.8648,VALID,147,VALID,0,
2012-07-01, 02:06:04,VALID,915.561,VALID,0,VALID,96.6268,VALID,0,VALID,19.7808,VALID,147,VALID,0,
2012-07-01, 02:07:04,VALID,915.559,VALID,0,VALID,96.6268,VALID,0.107441,VALID,19.8033,VALID,147,VALID,0,
2012-07-01, 02:08:04,VALID,915.536,VALID,0,VALID,96.5811,VALID,0,VALID,19.7838,VALID,147,VALID,0,
2012-07-01, 02:09:04,VALID,915.512,VALID,0,VALID,96.6039,VALID,0,VALID,19.7433,VALID,147,VALID,0,
2012-07-01, 02:10:04,VALID,915.492,VALID,0,VALID,96.5887,VALID,0,VALID,19.8063,VALID,147,VALID,0,
2012-07-01, 02:11:04,VALID,915.477,VALID,0,VALID,96.5658,VALID,0,VALID,19.7043,VALID,147,VALID,0,
2012-07-01, 02:12:04,VALID,915.457,VALID,0,VALID,96.5887,VALID,0,VALID,19.7673,VALID,147,VALID,0,
2012-07-01, 02:13:04,VALID,915.492,VALID,0,VALID,96.6039,VALID,0,VALID,19.7043,VALID,147,VALID,0,
2012-07-01, 02:14:04,VALID,915.475,VALID,0,VALID,96.5963,VALID,0,VALID,19.6863,VALID,147,VALID,0,
2012-07-01, 02:15:04,VALID,915.462,VALID,0,VALID,96.6268,VALID,0,VALID,19.6878,VALID,147,VALID,0,
2012-07-01, 02:16:04,VALID,915.41,VALID,0,VALID,96.6802,VALID,0,VALID,19.6443,VALID,147,VALID,0,
2012-07-01, 02:17:04,VALID,915.414,VALID,0,VALID,96.7259,VALID,0,VALID,19.6638,VALID,147,VALID,0,
2012-07-01, 02:18:04,VALID,915.382,VALID,0,VALID,96.7411,VALID,0,VALID,19.7463,VALID,147,VALID,0,
2012-07-01, 02:19:04,VALID,915.364,VALID,0,VALID,96.7259,VALID,0,VALID,19.6623,VALID,147,VALID,0,
2012-07-01, 02:20:04,VALID,915.312,VALID,0,VALID,96.7411,VALID,0,VALID,19.8063,VALID,147,VALID,0,
2012-07-01, 02:21:04,VALID,915.306,VALID,0,VALID,96.703,VALID,0,VALID,19.7853,VALID,147,VALID,0,
2012-07-01, 02:22:04,VALID,915.227,VALID,0,VALID,96.6497,VALID,0,VALID,19.8048,VALID,147,VALID,0,
2012-07-01, 02:23:04,VALID,915.202,VALID,0,VALID,96.6344,VALID,0,VALID,19.7433,VALID,147,VALID,0,
2012-07-01, 02:24:04,VALID,915.16,VALID,0,VALID,96.6268,VALID,0,VALID,19.7628,VALID,147,VALID,0,
2012-07-01, 02:25:04,VALID,915.164,VALID,0,VALID,96.5353,VALID,0,VALID,19.7853,VALID,132,VALID,0,
2012-07-01, 02:26:04,VALID,915.129,VALID,0,VALID,96.4667,VALID,0,VALID,19.8048,VALID,132,VALID,0,
2012-07-01, 02:27:04,VALID,915.116,VALID,0,VALID,96.4438,VALID,0,VALID,19.7643,VALID,132,VALID,0,
2012-07-01, 02:28:04,VALID,915.109,VALID,0,VALID,96.421,VALID,0,VALID,19.7418,VALID,132,VALID,0,
2012-07-01, 02:29:04,VALID,915.113,VALID,0,VALID,96.4133,VALID,0,VALID,19.7628,VALID,132,VALID,0,
2012-07-01, 02:30:04,VALID,915.049,VALID,0,VALID,96.3905,VALID,0,VALID,19.7613,VALID,132,VALID,0,
2012-07-01, 02:31:04,VALID,915.048,VALID,0,VALID,96.3981,VALID,0,VALID,19.8033,VALID,132,VALID,0,
2012-07-01, 02:32:04,VALID,915.039,VALID,0,VALID,96.3142,VALID,0,VALID,19.8243,VALID,132,VALID,0,
2012-07-01, 02:33:04,VALID,915.03,VALID,0,VALID,96.1846,VALID,0,VALID,19.7838,VALID,132,VALID,0,
2012-07-01, 02:34:04,VALID,915.021,VALID,0,VALID,96.0703,VALID,0,VALID,19.8078,VALID,132,VALID,0,
2012-07-01, 02:35:04,VALID,915.059,VALID,0,VALID,96.055,VALID,0,VALID,19.6623,VALID,132,VALID,0,
2012-07-01, 02:36:04,VALID,915.095,VALID,0,VALID,96.0093,VALID,0,VALID,19.7253,VALID,132,VALID,0,
2012-07-01, 02:37:04,VALID,915.122,VALID,0,VALID,95.9712,VALID,0,VALID,19.6863,VALID,132,VALID,0,
2012-07-01, 02:38:04,VALID,915.173,VALID,0,VALID,95.9178,VALID,0,VALID,19.6878,VALID,132,VALID,0,
2012-07-01, 02:39:04,VALID,915.159,VALID,0,VALID,95.8187,VALID,0,VALID,19.5663,VALID,132,VALID,0,
2012-07-01, 02:40:04,VALID,915.165,VALID,0,VALID,95.8416,VALID,0,VALID,19.5693,VALID,132,VALID,0,
2012-07-01, 02:41:04,VALID,915.145,VALID,0,VALID,95.8721,VALID,0,VALID,19.5273,VALID,132,VALID,0,
2012-07-01, 02:42:04,VALID,915.161,VALID,0,VALID,95.9178,VALID,0,VALID,19.4883,VALID,132,VALID,0,
2012-07-01, 02:43:04,VALID,915.097,VALID,0,VALID,95.9559,VALID,0,VALID,19.4898,VALID,132,VALID,0,
2012-07-01, 02:44:04,VALID,915.081,VALID,0,VALID,95.9788,VALID,0,VALID,19.5122,VALID,132,VALID,0,
2012-07-01, 02:45:04,VALID,915.067,VALID,0,VALID,96.0627,VALID,0,VALID,19.4508,VALID,132,VALID,0,
2012-07-01, 02:46:04,VALID,915.054,VALID,0,VALID,96.1541,VALID,0,VALID,19.5303,VALID,132,VALID,0,
2012-07-01, 02:47:04,VALID,915.063,VALID,0,VALID,96.1846,VALID,0,VALID,19.5317,VALID,132,VALID,0,
2012-07-01, 02:48:04,VALID,915.097,VALID,0,VALID,96.1999,VALID,0,VALID,19.4898,VALID,132,VALID,0,
2012-07-01, 02:49:04,VALID,915.099,VALID,0,VALID,96.2304,VALID,0,VALID,19.5752,VALID,132,VALID,0,
2012-07-01, 02:50:04,VALID,915.154,VALID,0,VALID,96.2533,VALID,0,VALID,19.4898,VALID,132,VALID,0,
2012-07-01, 02:51:04,VALID,915.196,VALID,0,VALID,96.238,VALID,0,VALID,19.5752,VALID,132,VALID,0,
2012-07-01, 02:52:04,VALID,915.228,VALID,0,VALID,96.3524,VALID,0,VALID,19.5108,VALID,132,VALID,0,
2012-07-01, 02:53:04,VALID,915.254,VALID,0,VALID,96.36,VALID,0,VALID,19.5303,VALID,132,VALID,0,
2012-07-01, 02:54:04,VALID,915.251,VALID,0,VALID,96.3981,VALID,0,VALID,19.4703,VALID,132,VALID,0,
2012-07-01, 02:55:04,VALID,915.288,VALID,0,VALID,96.4057,VALID,0,VALID,19.4688,VALID,132,VALID,0,
2012-07-01, 02:56:04,VALID,915.259,VALID,0,VALID,96.4515,VALID,0,VALID,19.4718,VALID,132,VALID,0,
2012-07-01, 02:57:04,VALID,915.243,VALID,0,VALID,96.4591,VALID,0,VALID,19.4508,VALID,132,VALID,0,
2012-07-01, 02:58:04,VALID,915.212,VALID,0,VALID,96.5048,VALID,0,VALID,19.4313,VALID,132,VALID,0,
2012-07-01, 02:59:04,VALID,915.192,VALID,0,VALID,96.5429,VALID,0,VALID,19.4523,VALID,132,VALID,0,
2012-07-01, 03:00:04,VALID,915.18,VALID,0,VALID,96.5277,VALID,0,VALID,19.4732,VALID,132,VALID,0,
2012-07-01, 03:01:04,VALID,915.12,VALID,0,VALID,96.5582,VALID,0,VALID,19.3908,VALID,132,VALID,0,
2012-07-01, 03:02:04,VALID,915.126,VALID,0,VALID,96.5963,VALID,0,VALID,19.5347,VALID,132,VALID,0,
2012-07-01, 03:03:04,VALID,915.088,VALID,0,VALID,96.5963,VALID,0,VALID,19.4718,VALID,132,VALID,0,
2012-07-01, 03:04:04,VALID,915.07,VALID,0,VALID,96.6268,VALID,0,VALID,19.4898,VALID,132,VALID,0,
2012-07-01, 03:05:04,VALID,915.066,VALID,0,VALID,96.642,VALID,0,VALID,19.4898,VALID,132,VALID,0,
2012-07-01, 03:06:04,VALID,915.05,VALID,0,VALID,96.6115,VALID,0,VALID,19.5317,VALID,132,VALID,0,
2012-07-01, 03:07:04,VALID,915.015,VALID,0,VALID,96.5887,VALID,0,VALID,19.4688,VALID,132,VALID,0,
2012-07-01, 03:08:04,VALID,915.006,VALID,0,VALID,96.5658,VALID,0.107441,VALID,19.4703,VALID,132,VALID,0,
2012-07-01, 03:09:04,VALID,914.994,VALID,0,VALID,96.5963,VALID,0.107441,VALID,19.4913,VALID,132,VALID,0,
2012-07-01, 03:10:04,VALID,915.028,VALID,0,VALID,96.5963,VALID,0,VALID,19.4074,VALID,132,VALID,0,
2012-07-01, 03:11:04,VALID,914.979,VALID,0,VALID,96.5811,VALID,0,VALID,19.5752,VALID,132,VALID,0,
2012-07-01, 03:12:04,VALID,914.968,VALID,0,VALID,96.5506,VALID,0,VALID,19.4703,VALID,132,VALID,0,
2012-07-01, 03:13:04,VALID,914.941,VALID,0,VALID,96.5124,VALID,0.107441,VALID,19.4298,VALID,132,VALID,0,
2012-07-01, 03:14:04,VALID,914.92,VALID,0,VALID,96.5201,VALID,0,VALID,19.4313,VALID,132,VALID,0,
2012-07-01, 03:15:04,VALID,914.931,VALID,0,VALID,96.5277,VALID,0,VALID,19.4118,VALID,132,VALID,0,
2012-07-01, 03:16:04,VALID,914.902,VALID,0,VALID,96.5048,VALID,0,VALID,19.3698,VALID,132,VALID,0,
2012-07-01, 03:17:04,VALID,914.883,VALID,0,VALID,96.5201,VALID,0,VALID,19.4132,VALID,132,VALID,0,
2012-07-01, 03:18:04,VALID,914.884,VALID,0,VALID,96.5048,VALID,0,VALID,19.4537,VALID,132,VALID,0,
2012-07-01, 03:19:04,VALID,914.875,VALID,0,VALID,96.5124,VALID,0,VALID,19.4118,VALID,132,VALID,0,
2012-07-01, 03:20:04,VALID,914.89,VALID,0,VALID,96.4819,VALID,0,VALID,19.3908,VALID,132,VALID,0,
2012-07-01, 03:21:04,VALID,914.856,VALID,0,VALID,96.4819,VALID,0,VALID,19.4927,VALID,132,VALID,0,
2012-07-01, 03:22:04,VALID,914.849,VALID,0,VALID,96.4057,VALID,0,VALID,19.3893,VALID,132,VALID,0,
2012-07-01, 03:23:04,VALID,914.849,VALID,0,VALID,96.36,VALID,0,VALID,19.5137,VALID,132,VALID,0,
2012-07-01, 03:24:04,VALID,914.847,VALID,0,VALID,96.3142,VALID,0,VALID,19.4523,VALID,132,VALID,0,
2012-07-01, 03:25:04,VALID,914.857,VALID,0,VALID,96.2533,VALID,0.107441,VALID,19.4508,VALID,132,VALID,0,
2012-07-01, 03:26:04,VALID,914.839,VALID,0,VALID,96.1999,VALID,0,VALID,19.4508,VALID,132,VALID,0,
2012-07-01, 03:27:04,VALID,914.818,VALID,0,VALID,96.1694,VALID,0,VALID,19.4493,VALID,132,VALID,0,
2012-07-01, 03:28:04,VALID,914.833,VALID,0,VALID,96.116,VALID,0,VALID,19.4478,VALID,132,VALID,0,
2012-07-01, 03:29:04,VALID,914.794,VALID,0,VALID,96.055,VALID,0,VALID,19.4703,VALID,132,VALID,0,
2012-07-01, 03:30:04,VALID,914.8,VALID,0,VALID,95.9559,VALID,0,VALID,19.5137,VALID,132,VALID,0,
2012-07-01, 03:31:04,VALID,914.831,VALID,0,VALID,95.9026,VALID,0.107441,VALID,19.4103,VALID,132,VALID,0,
2012-07-01, 03:32:04,VALID,914.802,VALID,0,VALID,95.9026,VALID,0,VALID,19.4523,VALID,132,VALID,0,
2012-07-01, 03:33:04,VALID,914.801,VALID,0,VALID,95.8568,VALID,0,VALID,19.4927,VALID,132,VALID,0,
2012-07-01, 03:34:04,VALID,914.816,VALID,0,VALID,95.8416,VALID,0,VALID,19.4478,VALID,132,VALID,0,
2012-07-01, 03:35:04,VALID,914.83,VALID,0,VALID,95.7425,VALID,0,VALID,19.5122,VALID,132,VALID,0,
2012-07-01, 03:36:04,VALID,914.819,VALID,0,VALID,95.7044,VALID,0,VALID,19.5122,VALID,220,VALID,0,
2012-07-01, 03:37:04,VALID,914.823,VALID,0,VALID,95.6891,VALID,0,VALID,19.5122,VALID,220,VALID,0,
2012-07-01, 03:38:04,VALID,914.84,VALID,0,VALID,95.6815,VALID,0,VALID,19.5303,VALID,220,VALID,0,
2012-07-01, 03:39:04,VALID,914.842,VALID,0,VALID,95.7349,VALID,0,VALID,19.5722,VALID,220,VALID,0,
2012-07-01, 03:40:04,VALID,914.836,VALID,0,VALID,95.7501,VALID,0,VALID,19.5093,VALID,220,VALID,0,
2012-07-01, 03:41:04,VALID,914.799,VALID,0,VALID,95.773,VALID,0,VALID,19.5512,VALID,220,VALID,0,
2012-07-01, 03:42:04,VALID,914.807,VALID,0,VALID,95.8187,VALID,0,VALID,19.5527,VALID,220,VALID,0,
2012-07-01, 03:43:05,VALID,914.799,VALID,0,VALID,95.8568,VALID,0,VALID,19.5722,VALID,220,VALID,0,
2012-07-01, 03:44:05,VALID,914.753,VALID,0,VALID,95.9102,VALID,0,VALID,19.5498,VALID,220,VALID,0,
2012-07-01, 03:45:05,VALID,914.731,VALID,0,VALID,95.9331,VALID,0,VALID,19.5917,VALID,220,VALID,0,
2012-07-01, 03:46:05,VALID,914.724,VALID,0,VALID,95.9712,VALID,0,VALID,19.4673,VALID,220,VALID,0,
2012-07-01, 03:47:05,VALID,914.731,VALID,0,VALID,96.0017,VALID,0,VALID,19.5498,VALID,220,VALID,0,
2012-07-01, 03:48:05,VALID,914.721,VALID,0,VALID,96.055,VALID,0,VALID,19.5273,VALID,220,VALID,0,
2012-07-01, 03:49:05,VALID,914.711,VALID,0,VALID,96.0932,VALID,0,VALID,19.5903,VALID,220,VALID,0,
2012-07-01, 03:50:05,VALID,914.672,VALID,0,VALID,96.0932,VALID,0,VALID,19.5678,VALID,220,VALID,0,
2012-07-01, 03:51:05,VALID,914.677,VALID,0,VALID,96.0245,VALID,0,VALID,19.5498,VALID,220,VALID,0,
2012-07-01, 03:52:05,VALID,914.659,VALID,0,VALID,95.9864,VALID,0,VALID,19.5693,VALID,220,VALID,0,
2012-07-01, 03:53:05,VALID,914.654,VALID,0,VALID,95.9407,VALID,0,VALID,19.5693,VALID,220,VALID,0,
2012-07-01, 03:54:05,VALID,914.677,VALID,0,VALID,95.9178,VALID,0.107441,VALID,19.5708,VALID,220,VALID,0,
2012-07-01, 03:55:05,VALID,914.69,VALID,0,VALID,95.8416,VALID,0,VALID,19.5498,VALID,220,VALID,0,
2012-07-01, 03:56:05,VALID,914.699,VALID,0,VALID,95.7425,VALID,0,VALID,19.4883,VALID,220,VALID,0,
2012-07-01, 03:57:05,VALID,914.728,VALID,0,VALID,95.712,VALID,0.107441,VALID,19.5122,VALID,220,VALID,0,
2012-07-01, 03:58:05,VALID,914.689,VALID,0,VALID,95.59,VALID,0,VALID,19.4298,VALID,220,VALID,0,